Flag for U.S.A. Weather past 2 weeks in Manhattan, Kansas, U.S.A.

Now
47 °F

Clear.


Feels Like: 47 °F
Forecast: 43 / 68 °F
Wind: No wind

Location: Manhattan Municipal Airport

Current Time: Mar 29, 2015 at 9:08:01 AM

Latest Report: Mar 29, 2015 at 7:52 AM


Visibility: 7 mi

Pressure: 29.95 "Hg

Humidity: 83%

Dew point: 42 °F

Location of ManhattanLocation

Historic Weather in Manhattan — Graph

°F

Manhattan temperature yesterday

Maximum temperature yesterday: 63 °F (at 4:52 PM)
Minimum temperature yesterday: 37 °F (at 6:52 AM)
Average temperature yesterday: 49 °F

Past Weeks' High & Low Weather Summary

 TemperatureHumidityPressure
High86 °F (Mar 16, 4:52 PM)100% (Mar 19, 1:52 AM)30.43 "Hg (Mar 19, 1:52 AM)
Low26 °F (Mar 15, 4:52 AM)13% (Mar 16, 4:52 PM)29.81 "Hg (Mar 24, 2:52 PM)
Average48 °F63%30.10 "Hg
* Reported Mar 14 7:52 AM — Mar 29 7:52 AM, Manhattan, Weather by CustomWeather, © 2015

Note: Actual official high and low records may vary slightly from our data, if they occured in-between our weather recording intervals... More about our weather records

Advertising

Manhattan weather history for previous 24 hours

 ConditionsComfort  
Time TempWeatherWind HumidityBarometerVisibility
7:52 AM
Sun, Mar 29
47 °FClear.No wind83%29.95 "Hg7 mi
6:52 AM47 °FPassing clouds.3 mph83%29.91 "Hg8 mi
5:52 AM48 °FClear.5 mph77%29.91 "Hg10 mi
4:52 AM48 °FClear.9 mph77%29.84 "Hg10 mi
3:52 AM46 °FClear.10 mph77%29.86 "Hg10 mi
2:52 AM45 °FClear.8 mph76%29.90 "Hg10 mi
1:52 AM45 °FClear.7 mph74%29.93 "Hg10 mi
12:52 AM46 °FClear.12 mph71%29.95 "Hg10 mi
11:52 PM
Sat, Mar 28
47 °FClear.8 mph69%29.98 "Hg10 mi
10:52 PM48 °FClear.9 mph63%30.02 "Hg10 mi
9:52 PM50 °FClear.7 mph59%30.04 "Hg10 mi
8:52 PM52 °FClear.6 mph55%30.03 "Hg10 mi
7:52 PM56 °FSunny.8 mph46%30.02 "Hg10 mi
6:52 PM60 °FSunny.13 mph39%30.02 "Hg10 mi
5:52 PM62 °FSunny.15 mph37%30.03 "Hg10 mi
4:52 PM63 °FSunny.13 mph35%30.03 "Hg10 mi
3:52 PM62 °FSunny.12 mph37%30.04 "Hg10 mi
2:52 PM60 °FSunny.10 mph38%30.06 "Hg10 mi
1:52 PM58 °FSunny.13 mph41%30.08 "Hg8 mi
12:52 PM56 °FSunny.9 mph42%30.09 "Hg6 mi
11:52 AM53 °FSunny.10 mph45%30.11 "Hg10 mi
10:52 AM50 °FSunny.8 mph48%30.11 "Hg10 mi
9:52 AM46 °FSunny.10 mph51%30.10 "Hg10 mi
Weather by CustomWeather, © 2015

See weather overviewHow to use our weather pages